Wind_Speed
2 1 1 1 2 3 3 4 4 4 5 5 6 7 7 7 6 5 5 5 6 5 5 6 6 7 7 8 8 8 8 8 6 6 5 6 5 5 4 5 4 4 3
2 1 1 2 2 3 4 4 4 5 5 5 5 6 6 6 6 6 5 6 5 5 5 6 6 7 7 8 8 8 7 7 6 6 6 6 6 5 4 4 4 3 2
2 2 2 2 3 3 4 4 5 5 5 6 6 6 6 6 6 5 6 5 5 5 5 5 6 8 9 8 8 7 7 7 7 6 6 6 5 5 4 3 3 2 2
4 4 3 3 3 3 4 4 5 5 6 6 6 6 6 6 6 5 6 6 5 5 5 7 8 9 10 9 8 7 7 7 7 6 6 5 4 4 4 3 3 2 2
5 5 4 4 4 4 5 5 5 6 6 6 6 6 6 5 6 6 7 6 7 6 7 7 8 9 8 7 7 6 6 7 6 6 5 4 4 3 3 2 2 2 2
6 5 5 4 4 4 5 5 5 6 6 6 6 6 6 5 6 6 7 6 7 7 7 7 8 8 7 7 6 6 5 6 6 4 4 4 4 3 3 3 3 2 2
6 6 6 5 4 4 5 5 5 6 6 6 6 6 6 5 5 5 6 5 6 6 7 7 7 7 7 7 6 5 5 5 5 4 4 4 4 4 3 3 3 3 3
7 7 6 6 5 5 5 6 6 6 6 6 6 6 6 6 6 6 5 5 6 6 6 6 6 6 7 6 5 5 5 5 4 4 5 4 4 4 3 3 3 4 4
8 8 8 7 6 6 6 6 6 5 5 6 6 6 6 6 6 6 5 6 6 5 6 6 6 6 6 6 5 4 4 3 3 4 4 5 5 4 4 4 4 4 4
9 8 9 8 8 7 6 6 6 5 6 7 6 7 7 6 6 6 6 5 6 5 6 6 5 5 4 4 4 4 3 3 3 3 4 4 4 4 4 4 5 5 5
10 10 10 9 9 8 7 7 6 6 6 6 6 7 7 6 6 6 5 4 4 4 5 5 4 5 4 4 3 3 3 3 3 3 4 4 4 4 4 4 5 6 6
11 10 10 10 10 9 8 7 6 7 6 7 7 6 6 6 6 6 5 4 3 4 4 4 4 4 4 3 2 3 3 3 2 3 4 5 5 5 4 5 6 6 7
12 11 10 10 9 9 8 7 7 7 6 5 5 5 5 5 5 5 4 3 3 3 4 4 5 5 4 3 3 2 2 2 3 4 4 4 5 5 5 6 6 7 6
12 11 10 10 9 8 7 7 8 7 5 5 4 4 5 5 5 4 4 3 3 3 4 4 5 5 4 3 2 2 1 2 4 4 4 5 5 6 6 6 6 6 7
11 11 10 9 9 8 8 7 6 6 5 5 4 4 4 4 4 3 2 2 2 2 3 3 3 3 2 2 1 1 0 2 3 3 4 5 5 6 6 6 6 7 7
11 10 10 9 8 8 8 7 6 5 5 5 4 4 4 4 3 2 2 1 1 1 2 3 2 1 1 1 1 2 3 3 4 5 5 6 6 6 6 6 7 8 8
12 11 10 9 8 7 8 7 7 6 6 6 6 5 4 4 3 2 2 1 1 1 2 1 2 1 2 3 3 3 3 4 6 6 6 6 6 5 5 6 7 8 8
12 11 11 10 8 8 8 7 7 7 7 7 6 6 5 4 4 3 2 1 0 1 1 1 1 1 3 3 3 4 5 6 6 6 6 5 5 5 5 6 7 7 8
12 12 11 11 9 9 9 9 8 8 7 7 6 5 4 4 4 3 3 2 1 0 1 2 2 2 3 4 5 5 6 7 6 7 7 6 6 7 7 8 8 8 8
12 11 11 10 9 8 8 8 8 7 7 7 7 6 5 4 4 4 3 3 3 2 2 3 3 4 4 4 5 5 6 6 6 7 7 6 6 7 7 8 8 9 9
12 12 11 11 10 9 8 8 8 7 7 6 6 6 5 5 5 4 4 4 4 4 4 4 4 4 5 5 5 5 6 7 7 7 7 7 7 7 7 8 9 10 10
11 11 11 10 10 9 8 8 8 8 7 7 6 6 6 5 5 6 5 5 4 5 5 5 5 5 5 6 6 5 6 6 7 7 7 7 7 7 8 9 9 9 10
10 10 11 10 9 8 8 8 7 8 7 6 6 6 6 6 5 5 5 5 6 6 6 5 6 6 5 6 6 7 7 7 8 8 8 8 8 8 9 9 10 10 11
9 10 10 10 9 8 8 8 7 7 7 6 6 5 6 6 5 5 5 6 6 6 6 6 6 6 7 7 7 7 8 9 9 9 9 10 10 10 10 10 10 11 11
8 9 10 10 9 9 8 8 8 8 7 7 6 6 6 6 6 5 6 6 6 6 6 6 7 7 8 8 8 9 9 9 10 11 11 11 11 11 11 11 11 12 12
7 8 9 9 9 9 9 8 8 8 8 7 7 7 6 5 5 5 6 6 6 6 7 7 8 8 9 9 9 9 10 11 11 11 11 11 11 11 12 12 12 12 13
Wind_Direction
36 42 116 149 161 163 158 151 147 145 153 149 146 147 146 145 147 152 151 155 151 149 149 148 144 150 164 172 168 163 159 160 161 166 170 173 176 171 169 170 164 153 146
30 68 126 146 156 149 151 148 143 144 147 147 146 146 145 142 143 149 150 147 145 148 145 145 149 152 158 163 165 162 153 157 162 171 176 175 177 174 171 176 169 154 155
55 80 86 107 141 156 155 153 146 146 145 147 147 148 150 146 144 145 146 144 144 141 143 140 142 152 152 156 160 160 163 162 165 173 178 177 178 176 177 182 179 173 176
55 62 61 86 119 133 135 144 145 145 143 145 148 147 147 148 150 147 146 146 139 133 143 134 128 141 147 152 158 157 164 166 165 172 182 182 177 177 184 197 191 181 193
54 58 60 81 110 122 129 138 143 142 142 145 151 150 148 150 152 151 149 138 132 135 141 136 133 137 141 148 155 159 166 167 166 172 184 187 179 179 192 202 198 192 201
59 61 65 82 105 118 128 136 140 142 142 144 150 149 148 146 151 152 151 145 132 129 139 142 140 143 144 147 154 160 164 171 172 181 193 200 192 197 203 205 200 207 216
58 62 72 74 86 108 124 136 139 137 138 143 148 147 148 143 146 150 153 144 138 137 137 141 145 149 149 150 152 156 162 174 180 191 200 203 194 200 210 206 213 215 225
57 63 65 70 81 97 118 127 135 129 129 139 142 151 149 143 141 147 154 146 144 144 143 150 154 153 156 160 164 169 175 179 190 199 200 205 202 209 219 220 227 221 229
60 65 68 69 85 94 109 119 125 130 133 134 137 144 147 149 146 140 140 148 143 144 150 154 156 157 163 170 174 175 183 185 196 205 210 212 216 221 225 229 231 225 234
61 66 71 76 85 89 98 111 117 123 129 130 131 136 142 144 142 137 136 143 148 152 159 161 160 164 168 177 182 180 186 188 201 214 218 214 216 222 225 232 236 235 237
62 66 70 73 77 79 88 94 99 109 118 124 124 130 133 135 137 133 132 142 147 156 163 174 175 177 181 185 191 199 206 211 214 218 224 224 229 234 234 238 245 245 244
60 62 68 72 76 75 78 83 94 102 107 118 121 128 133 132 131 132 130 133 146 160 175 188 192 187 190 194 211 218 225 233 232 233 232 237 241 243 243 248 252 253 254
60 61 69 76 75 71 69 74 82 87 96 114 119 130 134 131 131 133 130 132 142 153 170 180 188 189 191 211 222 212 224 231 239 246 250 248 244 245 250 255 257 257 257
56 59 63 67 68 66 65 73 79 81 83 98 118 127 124 127 128 124 127 130 148 160 161 176 190 189 196 201 198 177 202 243 261 270 273 262 251 252 252 258 261 259 260
52 54 58 61 61 58 58 68 71 75 78 80 96 119 120 122 121 117 139 118 141 160 182 186 173 179 200 225 239 239 232 249 256 281 285 270 258 256 250 258 263 262 260
48 49 51 54 55 53 53 60 62 70 72 70 84 101 109 114 106 102 104 114 140 172 186 183 185 183 218 313 331 292 266 263 268 287 291 268 259 257 254 260 268 265 264
45 45 47 49 51 51 52 59 57 60 60 58 70 82 95 103 100 98 104 133 141 159 193 205 228 254 312 329 324 309 293 279 275 283 287 281 273 268 265 267 272 269 270
44 44 44 45 50 48 45 49 52 57 53 56 67 79 86 90 85 77 76 75 59 174 221 229 253 305 307 316 312 302 306 304 295 289 297 292 287 282 282 279 277 271 276
43 43 42 43 44 44 42 41 45 54 58 55 61 70 71 70 62 52 50 46 47 160 277 302 334 329 307 305 313 315 312 311 308 307 306 303 297 289 286 279 278 276 277
40 40 40 40 41 41 40 42 45 52 60 65 70 70 69 65 53 45 36 40 42 51 24 347 344 338 324 317 318 315 317 315 320 318 315 308 299 297 292 286 283 283 283
38 37 36 38 38 39 39 39 40 47 56 56 61 66 63 53 51 49 47 37 33 25 13 1 351 345 344 339 322 314 317 321 329 326 321 318 312 310 303 295 294 289 286
33 33 31 32 35 38 38 38 35 37 47 52 53 53 56 53 48 44 42 35 31 24 17 6 360 357 351 349 341 329 321 321 328 331 326 320 316 317 311 305 302 296 294
28 28 28 26 28 30 31 31 28 27 30 34 38 41 44 44 41 39 34 30 24 18 11 5 360 354 349 344 344 338 336 336 336 328 325 324 320 317 312 308 302 299 296
21 23 24 25 26 27 26 23 21 20 23 23 19 20 26 25 22 22 23 22 18 11 7 5 357 353 341 336 337 337 338 338 333 328 320 315 313 314 315 310 303 300 296
15 17 19 20 23 22 20 18 16 18 17 18 15 8 4 7 8 8 7 8 8 7 4 358 351 346 341 340 340 341 340 339 335 330 324 317 313 311 310 309 306 301 298
5 11 14 14 14 15 15 15 15 13 12 10 6 6 1 360 3 3 355 356 356 356 354 350 349 348 349 348 343 339 337 334 332 329 327 322 316 313 311 307 303 302 303
Height
5858 5858 5857 5857 5857 5858 5858 5858 5859 5859 5860 5860 5861 5861 5862 5862 5863 5864 5865 5866 5867 5867 5868 5868 5867 5868 5869 5870 5872 5874 5876 5878 5880 5881 5883 5884 5885 5887 5887 5888 5889 5890 5891
5858 5857 5857 5857 5858 5858 5858 5859 5859 5860 5860 5861 5861 5862 5863 5863 5864 5865 5865 5866 5867 5868 5868 5868 5868 5869 5870 5871 5873 5875 5877 5879 5880 5882 5883 5885 5886 5887 5888 5888 5889 5890 5891
5859 5858 5858 5858 5858 5859 5859 5859 5860 5861 5861 5862 5862 5863 5864 5864 5865 5865 5866 5867 5868 5869 5869 5868 5866 5867 5870 5873 5875 5877 5879 5880 5881 5882 5884 5885 5886 5887 5888 5889 5889 5890 5891
5860 5859 5859 5858 5859 5859 5859 5860 5861 5861 5862 5862 5863 5864 5864 5865 5865 5866 5867 5867 5868 5869 5869 5868 5868 5869 5872 5874 5876 5878 5880 5881 5882 5883 5884 5885 5886 5887 5888 5889 5890 5890 5891
5860 5860 5859 5860 5860 5860 5860 5861 5861 5862 5863 5863 5864 5864 5865 5865 5866 5867 5868 5868 5869 5870 5870 5871 5871 5873 5875 5876 5878 5879 5881 5882 5883 5884 5884 5885 5887 5887 5888 5889 5890 5891 5891
5861 5861 5861 5861 5861 5861 5861 5862 5862 5863 5863 5864 5864 5865 5866 5866 5867 5867 5868 5869 5870 5870 5871 5873 5874 5875 5876 5878 5879 5880 5881 5883 5884 5884 5885 5886 5887 5888 5889 5890 5890 5891 5892
5863 5862 5862 5862 5862 5862 5862 5863 5863 5864 5864 5865 5865 5866 5866 5867 5868 5868 5869 5870 5871 5872 5873 5874 5875 5876 5877 5879 5880 5881 5882 5883 5884 5885 5886 5887 5888 5888 5889 5890 5890 5891 5892
5865 5864 5863 5863 5863 5863 5863 5864 5864 5865 5865 5866 5866 5867 5867 5868 5869 5869 5870 5871 5872 5873 5874 5875 5876 5877 5879 5880 5881 5882 5883 5883 5884 5885 5886 5887 5888 5888 5889 5889 5890 5891 5891
5866 5866 5865 5864 5864 5865 5864 5865 5865 5866 5866 5866 5867 5868 5868 5869 5870 5870 5871 5872 5873 5874 5875 5876 5877 5878 5879 5881 5882 5882 5883 5884 5885 5885 5886 5886 5887 5888 5889 5889 5890 5891 5891
5868 5868 5867 5866 5866 5866 5866 5866 5866 5867 5867 5867 5868 5868 5869 5870 5871 5872 5873 5874 5874 5875 5876 5876 5878 5879 5879 5881 5882 5883 5883 5884 5885 5885 5886 5886 5887 5887 5888 5889 5890 5890 5891
5870 5870 5869 5869 5868 5868 5868 5868 5868 5868 5868 5869 5869 5870 5870 5871 5872 5873 5874 5875 5875 5876 5877 5877 5878 5879 5880 5881 5882 5883 5883 5884 5885 5885 5885 5886 5886 5887 5888 5888 5889 5890 5890
5873 5872 5871 5871 5870 5870 5870 5869 5869 5869 5869 5870 5870 5871 5872 5873 5873 5874 5875 5875 5876 5877 5877 5878 5878 5879 5881 5881 5882 5882 5883 5884 5884 5884 5884 5885 5886 5887 5887 5888 5888 5889 5889
5875 5874 5874 5873 5873 5872 5872 5871 5871 5870 5870 5871 5872 5872 5873 5874 5874 5875 5876 5876 5877 5877 5878 5878 5879 5880 5881 5882 5882 5882 5883 5883 5883 5883 5884 5885 5886 5886 5887 5887 5887 5888 5888
5877 5877 5876 5875 5875 5874 5874 5873 5873 5872 5872 5872 5873 5873 5874 5874 5875 5876 5877 5877 5878 5878 5879 5879 5880 5880 5881 5881 5881 5882 5882 5883 5883 5883 5884 5884 5885 5885 5886 5886 5886 5886 5886
5880 5879 5878 5878 5877 5876 5875 5875 5874 5874 5873 5873 5873 5874 5875 5875 5876 5877 5877 5878 5878 5879 5879 5879 5880 5880 5881 5881 5881 5882 5882 5883 5883 5882 5882 5883 5884 5884 5884 5884 5885 5885 5885
5882 5882 5881 5880 5879 5878 5877 5877 5876 5875 5875 5874 5874 5874 5875 5876 5877 5877 5877 5878 5878 5879 5879 5880 5880 5881 5881 5881 5881 5881 5882 5882 5882 5881 5881 5882 5882 5883 5883 5883 5883 5883 5883
5885 5884 5883 5882 5881 5881 5880 5879 5878 5877 5876 5875 5875 5875 5876 5877 5878 5878 5878 5878 5878 5879 5879 5880 5881 5881 5881 5882 5882 5882 5882 5882 5881 5881 5881 5881 5881 5881 5882 5882 5882 5881 5881
5887 5886 5885 5884 5883 5883 5882 5881 5880 5879 5879 5878 5877 5878 5878 5879 5879 5879 5879 5879 5879 5880 5880 5881 5881 5882 5882 5882 5881 5881 5881 5881 5881 5880 5880 5880 5880 5880 5880 5880 5880 5880 5880
5890 5889 5888 5886 5885 5885 5884 5883 5882 5881 5881 5880 5880 5880 5880 5880 5880 5880 5880 5880 5880 5880 5881 5881 5881 5882 5882 5882 5881 5881 5881 5880 5880 5879 5879 5879 5879 5879 5879 5879 5878 5878 5878
5893 5891 5890 5889 5888 5887 5886 5885 5884 5883 5883 5882 5882 5882 5881 5881 5881 5882 5882 5881 5881 5881 5881 5881 5882 5882 5882 5882 5881 5881 5881 5880 5879 5879 5878 5878 5878 5877 5877 5877 5876 5876 5877
5895 5894 5893 5891 5890 5889 5888 5887 5886 5886 5885 5884 5884 5883 5883 5883 5882 5882 5882 5882 5882 5882 5882 5882 5882 5882 5882 5882 5881 5881 5880 5879 5878 5878 5877 5877 5876 5876 5875 5875 5874 5875 5875
5897 5896 5895 5893 5892 5891 5890 5889 5888 5887 5887 5886 5886 5885 5885 5884 5884 5884 5883 5883 5883 5883 5882 5882 5882 5882 5882 5881 5881 5880 5880 5880 5878 5877 5876 5876 5875 5874 5874 5873 5872 5872 5872
5899 5898 5897 5895 5895 5894 5892 5891 5890 5890 5889 5888 5887 5887 5886 5886 5885 5885 5884 5884 5884 5884 5883 5883 5883 5883 5882 5881 5880 5880 5879 5878 5877 5877 5875 5875 5874 5873 5872 5872 5871 5870 5870
5901 5900 5898 5897 5896 5895 5894 5893 5892 5891 5890 5889 5889 5888 5888 5887 5886 5886 5885 5885 5885 5884 5884 5884 5883 5882 5882 5881 5880 5879 5878 5877 5876 5875 5874 5873 5872 5871 5870 5869 5869 5868 5867
5902 5901 5900 5899 5897 5897 5895 5894 5893 5892 5892 5891 5890 5889 5888 5888 5887 5886 5886 5885 5885 5885 5884 5884 5883 5882 5881 5880 5879 5878 5877 5876 5875 5874 5872 5871 5870 5869 5868 5867 5866 5865 5865
5903 5902 5901 5900 5899 5898 5897 5896 5894 5894 5893 5892 5891 5890 5889 5888 5887 5887 5887 5886 5885 5885 5884 5884 5883 5882 5881 5879 5878 5877 5876 5875 5873 5872 5870 5868 5867 5866 5865 5864 5864 5863 5862